Location: Berg
(47.2344°N, 9.5296°E)
Time: 14:51:45
(UTC+00:00)

Nauka - Pass Details

Date: 17 September 2021
Orbit: 417 x 423 km, 51.6° (Epoch: 20 October)

Event Time Altitude Azimuth Distance (km) Brightness Sun altitude
Rises 18:00:58 0° 198° (SSW) 2,348 ? -6.1°
Reaches altitude 10° 18:03:36 10° 177° (S) 1,490 ? -6.6°
Maximum altitude 18:05:46 16° 136° (SE) 1,170 ? -6.9°
Drops below altitude 10° 18:07:57 10° 96° (E) 1,499 ? -7.3°
Enters shadow 18:08:03 10° 94° (E) 1,530 ? -7.3°
